Location: Observatoire
(46.1952°N, 5.3391°E)
Time: 02:39:01
(UTC+02:00)

STARS - Visible Passes

Search period start: 24 April 2024 00:00
Search period end: 04 May 2024 00:00
Orbit: 608 x 620 km, 98.1° (Epoch: 23 April)

Date Brightness Start Highest point End Pass type
(mag) Time Alt. Az. Time Alt. Az. Time Alt. Az.
24 Apr ? 01:02:22 10° NE 01:03:51 18° NE 01:03:51 18° NE visible
24 Apr ? 02:38:15 10° N 02:40:54 26° NW 02:40:54 26° NW visible
25 Apr ? 01:17:30 10° NNE 01:19:30 24° NE 01:19:30 24° NE visible
25 Apr ? 02:53:57 10° NNW 02:56:33 21° NW 02:56:33 21° NW visible
26 Apr ? 01:32:44 10° NNE 01:35:08 31° NE 01:35:08 31° NE visible
26 Apr ? 03:09:48 10° NNW 03:12:11 16° NW 03:12:11 16° NW visible
27 Apr ? 01:48:02 10° NNE 01:50:45 38° NNE 01:50:45 38° NNE visible
27 Apr ? 03:26:00 10° NW 03:27:40 12° WNW 03:27:48 12° WNW visible
28 Apr ? 02:03:24 10° N 02:06:21 42° N 02:06:21 42° N visible
29 Apr ? 00:43:48 10° NE 00:44:54 14° ENE 00:44:54 14° ENE visible
29 Apr ? 02:18:50 10° N 02:21:56 39° NNW 02:21:56 39° NNW visible
30 Apr ? 00:58:38 10° NE 01:00:28 19° ENE 01:00:28 19° ENE visible
30 Apr ? 02:34:20 10° N 02:37:30 31° NW 02:37:30 31° NW visible
01 May ? 01:13:37 10° NNE 01:16:00 26° NE 01:16:00 26° NE visible
01 May ? 02:49:54 10° N 02:53:03 24° WNW 02:53:03 24° WNW visible
02 May ? 01:28:44 10° NNE 01:31:32 36° NE 01:31:32 36° NE visible
02 May ? 03:05:36 10° NNW 03:08:31 18° WNW 03:08:34 18° WNW visible
03 May ? 01:43:55 10° NNE 01:47:03 47° NNE 01:47:03 47° NNE visible
03 May ? 03:21:33 10° NNW 03:23:36 13° WNW 03:24:05 13° WNW visible
